Regional Weather Roundup
Issued by NWS

Home | Current Version | Previous Version | Text Only | Print | Product List | Glossary Off
Versions: 1 2 3 4 5 6 7 8 9 10 11 12 13 14 15 16 17 18 19 20 21 22 23 24 25 26 27 28 29 30 31 32 33 34 35 36 37 38 39 40 41 42 43 44 45 46 47 48 49 50

000
ASUS45 KCYS 290710
RWRWY

WYOMING REGIONAL WEATHER ROUNDUP
NATIONAL WEATHER SERVICE CHEYENNE WY
100 AM MDT SUN MAR 29 2015

NOTE:  "FAIR" INDICATES FEW OR NO CLOUDS BELOW 12,000 FEET
WITH NO SIGNIFICANT WEATHER AND/OR OBSTRUCTIONS TO VISIBILITY.

WYZ001-290800-
YELLOWSTONE NATIONAL PARK

CITY           SKY/WX    TMP DP  RH WIND       PRES   REMARKS
LK YELLOWSTONE   N/A     25  14  63 CALM      30.31S
W YELLOWSTONE  NOT AVBL

$$
WYZ002>013-054>058-071-098>099-290800-
NORTHERN WYOMING

CITY           SKY/WX    TMP DP  RH WIND       PRES   REMARKS
JACKSON        FAIR      39  16  38 W12       30.28F WCI  32
CODY           FAIR      45  12  26 NW7       30.18R
GREYBULL       FAIR      51  20  29 NW25G35   30.15R
WORLAND        FAIR      47  16  29 N16       30.15R
SHERIDAN       CLOUDY    47  29  49 N25G39    30.17R
BUFFALO        FAIR      45  22  40 NW39G53   30.07R
GILLETTE       FAIR      46  23  40 NW43G55   30.02R
HULETT         FAIR      46  23  39 W16G29    29.97R
NEWCASTLE      FAIR      45  14  29 NW18G29   30.00R

$$
WYZ014>020-022>026-101>103-290800-
CENTRAL WYOMING

CITY           SKY/WX    TMP DP  RH WIND       PRES   REMARKS
BIG PINEY      FAIR      35  16  45 N12       30.28S WCI  27
PINEDALE       FAIR      32  23  69 NW10      30.27S WCI  24
DUBOIS         FAIR      36  14  41 NW17G24   30.24R WCI  25
LANDER         FAIR      47  21  35 NW10G21   30.14R
RIVERTON       FAIR      46  21  37 N13       30.17R
CASPER         FAIR      44  12  27 NW14G21   30.11R
DOUGLAS        CLOUDY    43  16  33 W8        30.10R

$$
WYZ021-027>030-104>119-290800-
SOUTHERN WYOMING

CITY           SKY/WX    TMP DP  RH WIND       PRES   REMARKS
EVANSTON       FAIR      40  20  44 W13       30.31S WCI  32
KEMMERER       FAIR      37  14  38 NW14      30.28R WCI  29
FORT BRIDGER   FAIR      38  22  52 W8        30.32R WCI  32
ROCK SPRINGS   FAIR      41  18  39 W13       30.25S
DIXON          FAIR      44  15  31 W8        30.23R
RAWLINS        FAIR      43  19  38 W12       30.16R
SARATOGA       FAIR      41  21  45 W13       30.19R
LARAMIE        FAIR      45  17  32 W24       30.11R
CHEYENNE       FAIR      53  18  25 NW22G33   30.04R
TORRINGTON     FAIR      51  16  24 NW12G24   30.01R
PINE BLUFFS    FAIR      46  30  53 N14       30.05R

$$



USA.gov is the U.S. government's official web portal to all federal, state and local government web resources and services.